Location: Recife
(8.0585°S, 34.8848°W)
Time: 14:56:00
(UTC-03:00)

Tiros 1 despin weight - Pass Details

Date: 21 April 2026
Orbit: 555 x 591 km, 48.2° (Epoch: 14 May)

Event Time Altitude Azimuth Distance (km) Brightness Sun altitude
Rises 23:43:36 0° 295° (WNW) 2,808 - -82.5°
Reaches altitude 10° 23:46:16 10° 280° (W) 1,912 - -82.0°
Maximum altitude 23:49:42 22° 228° (SW) 1,294 - -81.2°
Drops below altitude 10° 23:53:09 10° 176° (S) 1,916 - -80.5°
Sets 23:55:51 0° 160° (SSE) 2,816 - -79.9°
